Location: Klickitat County Star Party
(45.8642°N, 120.6771°W)
Time: 20:31:39
(UTC-07:00)

CUBESAT XI-V - Visible Passes

Search period start: 22 May 2019 00:00
Search period end: 01 June 2019 00:00
Orbit: 668 x 694 km, 98.0° (Epoch: 22 May)

Date Brightness Start Highest point End Pass type
(mag) Time Alt. Az. Time Alt. Az. Time Alt. Az.
22 May ? 02:02:31 10° E 02:04:51 14° ENE 02:07:09 10° NNE visible
22 May ? 03:37:15 12° S 03:41:35 79° WSW 03:46:11 10° NNW visible
23 May ? 02:36:48 10° SE 02:40:40 28° ENE 02:44:34 10° N visible
23 May ? 04:13:49 10° SSW 04:17:55 34° W 04:22:06 10° NNW visible
24 May ? 03:12:11 10° SSE 03:16:42 60° ENE 03:21:14 10° N visible
25 May ? 02:13:02 10° ESE 02:16:01 17° ENE 02:19:00 10° NNE visible
25 May ? 03:48:33 11° S 03:52:55 60° W 03:57:28 10° NNW visible
26 May ? 02:47:46 10° SE 02:51:55 35° ENE 02:56:05 10° N visible
26 May ? 04:25:27 10° SSW 04:29:19 27° W 04:33:12 10° NW visible
27 May ? 01:50:32 10° ENE 01:51:27 11° ENE 01:52:23 10° NE visible
27 May ? 03:23:25 10° SSE 03:28:00 78° ENE 03:32:36 10° N visible
28 May ? 02:23:45 10° ESE 02:27:13 22° ENE 02:30:42 10° NNE visible
28 May ? 03:59:52 10° S 04:04:16 46° W 04:08:42 10° NNW visible
29 May ? 02:58:49 10° SE 03:03:10 45° ENE 03:07:33 10° N visible
29 May ? 04:37:17 10° SW 04:40:44 21° W 04:44:12 10° NW visible
30 May ? 02:00:25 10° E 02:02:37 13° ENE 02:04:48 10° NNE visible
30 May ? 03:34:44 10° S 03:39:19 81° WSW 03:43:56 10° NNW visible
31 May ? 02:34:36 10° ESE 02:38:26 27° ENE 02:42:17 10° N visible
31 May ? 04:11:27 10° SSW 04:15:39 35° W 04:19:53 10° NNW visible
